When you browse on this site, cookies collect data to enhance your experience and personalize the content and advertising you see.
Visit our Privacy Policy to learn more. By continuing to use the site, you agree to this use of cookies and data.
  • In Germany
  • List of Countries
  • For 7 days
  • Water Temperature
  • Satellite Maps
  • Weather Map
  • Weather Widgets
  • user-avatar
    Login

    Hourly Weather Saurimo

    Today, 21 July, Sunday

    Time Temperature Precipitation Wind Pressure Humidity
    00:00 +17°C° 0 mm 2 mps 671 mmHg 30%
    01:00 +16°C° 0 mm 2 mps 671 mmHg 30%
    02:00 +16°C° 0 mm 2 mps 671 mmHg 31%
    03:00 +15°C° 0 mm 2 mps 671 mmHg 32%
    04:00 +15°C° 0 mm 2 mps 671 mmHg 32%
    05:00 +14°C° 0 mm 3 mps 671 mmHg 31%
    06:00 +16°C° 0 mm 3 mps 672 mmHg 30%
    07:00 +17°C° 0 mm 3 mps 673 mmHg 28%
    08:00 +21°C° 0 mm 4 mps 673 mmHg 24%
    09:00 +26°C° 0 mm 4 mps 674 mmHg 20%
    10:00 +30°C° 0 mm 4 mps 674 mmHg 15%
    11:00 +32°C° 0 mm 4 mps 674 mmHg 14%
    12:00 +33°C° 0 mm 3 mps 673 mmHg 13%
    13:00 +35°C° 0 mm 3 mps 673 mmHg 12%
    14:00 +34°C° 0 mm 3 mps 672 mmHg 12%
    15:00 +34°C° 0 mm 2 mps 672 mmHg 12%
    16:00 +34°C° 0 mm 2 mps 671 mmHg 12%
    17:00 +30°C° 0 mm 2 mps 671 mmHg 15%
    18:00 +26°C° 0 mm 2 mps 671 mmHg 18%
    19:00 +23°C° 0 mm 2 mps 671 mmHg 21%
    20:00 +21°C° 0 mm 2 mps 671 mmHg 22%
    21:00 +20°C° 0 mm 2 mps 671 mmHg 24%
    22:00 +19°C° 0 mm 2 mps 671 mmHg 25%
    23:00 +18°C° 0 mm 2 mps 671 mmHg 26%

    Tomorrow, 22 July, Monday

    Time Temperature Precipitation Wind Pressure Humidity
    00:00 +18°C° 0 mm 2 mps 670 mmHg 26%
    01:00 +17°C° 0 mm 2 mps 670 mmHg 27%
    02:00 +17°C° 0 mm 2 mps 670 mmHg 28%
    03:00 +16°C° 0 mm 2 mps 670 mmHg 28%
    04:00 +14°C° 0 mm 3 mps 670 mmHg 29%
    05:00 +16°C° 0 mm 3 mps 670 mmHg 28%
    06:00 +16°C° 0 mm 3 mps 671 mmHg 28%
    07:00 +17°C° 0 mm 3 mps 671 mmHg 27%
    08:00 +21°C° 0 mm 3 mps 672 mmHg 23%
    09:00 +25°C° 0 mm 4 mps 673 mmHg 20%
    10:00 +29°C° 0 mm 4 mps 674 mmHg 16%
    11:00 +31°C° 0 mm 3 mps 673 mmHg 15%
    12:00 +33°C° 0 mm 3 mps 673 mmHg 13%
    13:00 +35°C° 0 mm 3 mps 672 mmHg 12%
    14:00 +35°C° 0 mm 3 mps 671 mmHg 12%
    15:00 +35°C° 0 mm 2 mps 671 mmHg 12%
    16:00 +34°C° 0 mm 2 mps 670 mmHg 12%
    17:00 +30°C° 0 mm 2 mps 670 mmHg 15%
    18:00 +27°C° 0 mm 2 mps 670 mmHg 18%
    19:00 +24°C° 0 mm 1 mps 670 mmHg 22%
    20:00 +23°C° 0 mm 1 mps 670 mmHg 23%
    21:00 +22°C° 0 mm 1 mps 670 mmHg 25%
    22:00 +20°C° 0 mm 1 mps 670 mmHg 27%
    23:00 +19°C° 0 mm 2 mps 670 mmHg 28%

    Day after tomorrow, 23 July, Tuesday

    Time Temperature Precipitation Wind Pressure Humidity
    00:00 +18°C° 0 mm 2 mps 670 mmHg 29%
    01:00 +18°C° 0 mm 2 mps 669 mmHg 30%
    02:00 +17°C° 0 mm 2 mps 669 mmHg 31%
    03:00 +16°C° 0 mm 2 mps 669 mmHg 32%
    04:00 +15°C° 0 mm 2 mps 669 mmHg 33%
    05:00 +16°C° 0 mm 2 mps 670 mmHg 33%
    06:00 +16°C° 0 mm 2 mps 671 mmHg 33%
    07:00 +17°C° 0 mm 3 mps 671 mmHg 33%
    08:00 +20°C° 0 mm 3 mps 672 mmHg 29%
    09:00 +25°C° 0 mm 3 mps 673 mmHg 25%
    10:00 +29°C° 0 mm 3 mps 673 mmHg 20%
    11:00 +31°C° 0 mm 2 mps 673 mmHg 18%
    12:00 +34°C° 0 mm 2 mps 673 mmHg 15%
    13:00 +36°C° 0 mm 1 mps 672 mmHg 12%
    14:00 +35°C° 0 mm 1 mps 672 mmHg 12%
    15:00 +35°C° 0 mm 1 mps 671 mmHg 12%
    16:00 +32°C° 0 mm 0 mps 671 mmHg 12%
    17:00 +29°C° 0 mm 0 mps 670 mmHg 15%
    18:00 +27°C° 0 mm 1 mps 670 mmHg 18%
    19:00 +24°C° 0 mm 1 mps 670 mmHg 21%
    20:00 +23°C° 0 mm 1 mps 670 mmHg 23%
    21:00 +22°C° 0 mm 1 mps 670 mmHg 24%
    22:00 +21°C° 0 mm 1 mps 670 mmHg 26%
    23:00 +20°C° 0 mm 1 mps 670 mmHg 27%

    24 July, Wednesday

    Time Temperature Precipitation Wind Pressure Humidity
    00:00 +19°C° 0 mm 2 mps 669 mmHg 29%
    01:00 +18°C° 0 mm 2 mps 669 mmHg 30%
    02:00 +18°C° 0 mm 2 mps 669 mmHg 30%
    03:00 +17°C° 0 mm 2 mps 669 mmHg 31%
    04:00 +17°C° 0 mm 2 mps 669 mmHg 31%
    05:00 +18°C° 0 mm 2 mps 670 mmHg 30%
    06:00 +18°C° 0 mm 2 mps 670 mmHg 29%
    07:00 +19°C° 0 mm 2 mps 671 mmHg 27%
    08:00 +24°C° 0 mm 3 mps 672 mmHg 23%
    09:00 +28°C° 0 mm 3 mps 672 mmHg 18%
    10:00 +33°C° 0 mm 3 mps 673 mmHg 13%
    11:00 +35°C° 0 mm 2 mps 673 mmHg 12%
    12:00 +37°C° 0 mm 2 mps 672 mmHg 10%
    13:00 +39°C° 0 mm 1 mps 672 mmHg 9%
    14:00 +37°C° 0 mm 1 mps 671 mmHg 9%
    15:00 +36°C° 0 mm 1 mps 671 mmHg 9%
    16:00 +36°C° 0 mm 2 mps 670 mmHg 9%
    17:00 +32°C° 0 mm 1 mps 670 mmHg 11%
    18:00 +28°C° 0 mm 1 mps 670 mmHg 14%
    19:00 +25°C° 0 mm 1 mps 669 mmHg 16%
    20:00 +24°C° 0 mm 1 mps 670 mmHg 17%
    21:00 +23°C° 0 mm 1 mps 670 mmHg 18%
    22:00 +22°C° 0 mm 1 mps 670 mmHg 19%
    23:00 +21°C° 0 mm 1 mps 670 mmHg 20%

    25 July, Thursday

    Time Temperature Precipitation Wind Pressure Humidity
    00:00 +20°C° 0 mm 1 mps 670 mmHg 21%
    01:00 +19°C° 0 mm 1 mps 669 mmHg 22%
    02:00 +18°C° 0 mm 2 mps 669 mmHg 22%
    03:00 +17°C° 0 mm 2 mps 670 mmHg 21%
    04:00 +17°C° 0 mm 2 mps 670 mmHg 21%
    05:00 +17°C° 0 mm 2 mps 671 mmHg 21%
    06:00 +18°C° 0 mm 2 mps 671 mmHg 20%
    07:00 +18°C° 0 mm 2 mps 672 mmHg 20%
    08:00 +23°C° 0 mm 2 mps 672 mmHg 17%
    09:00 +28°C° 0 mm 3 mps 673 mmHg 14%
    10:00 +33°C° 0 mm 4 mps 674 mmHg 10%
    11:00 +34°C° 0 mm 4 mps 673 mmHg 10%
    12:00 +36°C° 0 mm 3 mps 673 mmHg 9%
    13:00 +37°C° 0 mm 3 mps 673 mmHg 8%
    14:00 +37°C° 0 mm 3 mps 672 mmHg 8%
    15:00 +36°C° 0 mm 2 mps 671 mmHg 8%
    16:00 +36°C° 0 mm 2 mps 671 mmHg 9%
    17:00 +31°C° 0 mm 2 mps 670 mmHg 11%
    18:00 +28°C° 0 mm 1 mps 670 mmHg 13%
    19:00 +25°C° 0 mm 1 mps 670 mmHg 16%
    20:00 +23°C° 0 mm 1 mps 670 mmHg 17%
    21:00 +22°C° 0 mm 1 mps 670 mmHg 18%
    22:00 +21°C° 0 mm 1 mps 670 mmHg 19%
    23:00 +19°C° 0 mm 2 mps 670 mmHg 19%

    26 July, Friday

    Time Temperature Precipitation Wind Pressure Humidity
    00:00 +18°C° 0 mm 2 mps 670 mmHg 19%
    01:00 +18°C° 0 mm 2 mps 670 mmHg 19%
    02:00 +18°C° 0 mm 2 mps 670 mmHg 18%
    03:00 +17°C° 0 mm 2 mps 670 mmHg 18%
    04:00 +17°C° 0 mm 3 mps 670 mmHg 17%
    05:00 +17°C° 0 mm 3 mps 670 mmHg 17%
    06:00 +18°C° 0 mm 3 mps 671 mmHg 17%
    07:00 +18°C° 0 mm 4 mps 671 mmHg 16%
    08:00 +22°C° 0 mm 4 mps 672 mmHg 14%
    09:00 +27°C° 0 mm 4 mps 673 mmHg 11%
    10:00 +32°C° 0 mm 4 mps 674 mmHg 8%
    11:00 +33°C° 0 mm 4 mps 673 mmHg 8%
    12:00 +35°C° 0 mm 3 mps 673 mmHg 7%
    13:00 +36°C° 0 mm 3 mps 672 mmHg 7%
    14:00 +36°C° 0 mm 3 mps 672 mmHg 7%
    15:00 +35°C° 0 mm 3 mps 671 mmHg 7%
    16:00 +35°C° 0 mm 3 mps 670 mmHg 7%
    17:00 +31°C° 0 mm 3 mps 670 mmHg 9%
    18:00 +27°C° 0 mm 2 mps 670 mmHg 12%
    19:00 +24°C° 0 mm 2 mps 669 mmHg 14%
    20:00 +23°C° 0 mm 2 mps 670 mmHg 14%
    21:00 +21°C° 0 mm 2 mps 670 mmHg 15%
    22:00 +20°C° 0 mm 2 mps 670 mmHg 16%
    23:00 +19°C° 0 mm 2 mps 670 mmHg 16%
    Show more